Location: Houston
(29.7630°N, 95.3630°W)
Time: 06:17:02
(UTC-05:00)

ISS - All Passes

Search period start: 01 September 2014 00:00
Search period end: 11 September 2014 00:00
Orbit: 414 x 419 km, 51.6° (Epoch: 01 September)

Date Brightness Start Highest point End Pass type
(mag) Time Alt. Az. Time Alt. Az. Time Alt. Az.
01 Sep - 09:31:15 10° SSW 09:34:30 57° SE 09:37:46 10° NE daylight
01 Sep - 11:10:10 10° WNW 11:11:29 12° NW 11:12:47 10° N daylight
01 Sep - 17:41:19 10° NNW 17:44:32 46° NE 17:47:45 10° ESE daylight
01 Sep - 19:20:39 10° WSW 19:20:54 10° SW 19:21:09 10° SW daylight
02 Sep - 08:43:13 10° S 08:46:03 27° SE 08:48:54 10° ENE daylight
02 Sep - 10:20:15 10° W 10:22:45 20° NW 10:25:16 10° N daylight
02 Sep - 16:53:08 10° NNW 16:55:55 24° NE 16:58:42 10° E daylight
02 Sep - 18:29:59 10° WNW 18:32:31 20° SW 18:35:03 10° S daylight
03 Sep - 07:55:56 10° SSE 07:57:39 13° SE 07:59:21 10° E daylight
03 Sep - 09:31:02 10° WSW 09:34:06 35° NW 09:37:11 10° NNE daylight
03 Sep - 16:05:17 10° N 16:07:12 14° NE 16:09:08 10° ENE daylight
03 Sep - 17:40:55 10° WNW 17:44:04 41° SW 17:47:13 10° SSE daylight
04 Sep - 08:42:11 10° SW 08:45:30 73° NW 08:48:48 10° NE daylight
04 Sep - 16:52:12 10° NW 16:55:32 88° NE 16:58:51 10° SE daylight
05 Sep - 07:53:42 10° SSW 07:56:55 50° SE 08:00:09 10° NE daylight
05 Sep - 09:32:15 10° WNW 09:33:51 13° NW 09:35:27 10° N daylight
05 Sep - 16:03:45 10° NNW 16:06:55 41° NE 16:10:04 10° ESE daylight
05 Sep - 17:42:11 10° WSW 17:43:18 11° SW 17:44:26 10° SW daylight
06 Sep - 07:05:40 10° S 07:08:24 24° SE 07:11:08 10° ENE daylight
06 Sep - 08:42:26 10° W 08:45:03 21° NW 08:47:41 10° NNE daylight
06 Sep - 15:15:31 10° NNW 15:18:12 22° NE 15:20:52 10° E daylight
06 Sep - 16:52:09 10° WNW 16:54:50 23° SW 16:57:30 10° S daylight
07 Sep - 06:18:34 10° SSE 06:19:54 12° SE 06:21:15 10° E visible
07 Sep - 07:53:11 10° WSW 07:56:19 39° NW 07:59:28 10° NNE daylight
07 Sep - 14:27:40 10° N 14:29:23 13° NE 14:31:05 10° ENE daylight
07 Sep - 16:03:04 10° NW 16:06:17 47° SW 16:09:29 10° SSE daylight
08 Sep - 07:04:19 10° SW 07:07:38 83° NW 07:10:57 10° NE daylight
08 Sep - 15:14:19 10° NW 15:17:39 77° NE 15:20:57 10° SE daylight
09 Sep - 06:15:49 10° SSW 06:18:59 43° SE 06:22:10 10° ENE visible
09 Sep - 07:54:01 10° WNW 07:55:51 14° NW 07:57:42 10° N daylight
09 Sep - 14:25:49 10° NNW 14:28:55 36° NE 14:32:01 10° ESE daylight
09 Sep - 16:03:46 10° W 16:05:21 13° SW 16:06:55 10° SSW daylight
10 Sep - 05:27:48 10° S 05:30:23 21° SE 05:32:58 10° ENE visible
10 Sep - 07:04:14 10° W 07:06:59 24° NW 07:09:44 10° NNE daylight
10 Sep - 13:37:32 10° NNW 13:40:06 20° NE 13:42:38 10° E daylight
10 Sep - 15:13:57 10° WNW 15:16:46 26° SW 15:19:34 10° S daylight
